Weather History for New Delhi, India

Change the Weather History Date:

Monday, March 25, 2013

  Actual Average Record
Temperature  
Mean Temperature 72 °F -  
Max Temperature 82 °F 94 °F 95 °F (2004)
Min Temperature 62 °F 70 °F 53 °F (1998)
Cooling Degree Days 7    
Growing Degree Days 22 (Base 50)    
Moisture  
Dew Point 56 °F    
Average Humidity 58    
Maximum Humidity 100    
Minimum Humidity 26    
Precipitation  
Precipitation 0.00 in - - ()
Sea Level Pressure  
Sea Level Pressure 29.88 in    
Wind  
Wind Speed 9 mph ()    
Max Wind Speed 14 mph    
Max Gust Speed -    
Visibility 2.3 miles    
Events Fog    
Averages and records for this station are not official NWS values.
T = Trace of Precipitation, MM = Missing Value Source: Averaged Metar Reports

Daily Weather History Graph

Daily Weather History Graph

Search for Another Location

Airport:

Trip Planner

Search our weather history database for the weather conditions in past years. The results will help you decide how hot, cold, wet, or windy it might be!

Date:

Astronomy

Mar. 25, 2013 Rise Set
Actual Time 6:19 AM IST 6:35 PM IST
Civil Twilight 5:56 AM IST 6:59 PM IST
Nautical Twilight 5:28 AM IST 7:26 PM IST
Astronomical Twilight 5:00 AM IST 7:54 PM IST
Moon 4:44 PM IST (3/25) 4:38 AM IST (3/25)
Length of Visible Light 13h 02m
Length of Day
12h 15m
Waxing Gibbous, 95% of the Moon is Illuminated
Mar 25
Waxing Gibbous
Mar 27
Full
Apr 3
Last Quarter
Apr 10
New
Apr 18
First Quarter

Hourly Weather History & Observations

Time (IST) Temp. Heat Index Dew Point Humidity Pressure Visibility Wind Dir Wind Speed Gust Speed Precip Events Conditions
12:30 AM 75.2 °F - 62.6 °F 65% 29.92 in 3.1 mi North 10.4 mph - N/A   Haze
1:00 AM 73.4 °F - 57.2 °F 57% 29.92 in 3.1 mi NNW 6.9 mph - N/A   Haze
1:30 AM 73.4 °F - 60.8 °F 65% 29.89 in 3.1 mi NNW 6.9 mph - N/A   Haze
2:00 AM 71.6 °F - 62.6 °F 73% 29.89 in 2.5 mi WNW 6.9 mph - N/A   Haze
2:30 AM 71.6 °F - 64.4 °F 78% 29.89 in - WNW 6.9 mph - N/A   Scattered Clouds
3:30 AM 69.8 °F - 62.6 °F 78% 29.89 in 1.1 mi West 5.8 mph - N/A   Partly Cloudy
4:00 AM 66.2 °F - 60.8 °F 83% 29.89 in 1.2 mi West 4.6 mph - N/A   Partly Cloudy
4:30 AM 64.4 °F - 64.4 °F 100% 29.89 in 1.2 mi West 5.8 mph - N/A   Partly Cloudy
5:30 AM 62.6 °F - 60.8 °F 94% 29.89 in 0.6 mi West 8.1 mph - N/A Fog Shallow Fog
6:30 AM 62.6 °F - 62.6 °F 100% 29.89 in 0.4 mi West 5.8 mph - N/A Fog Shallow Fog
7:00 AM 62.6 °F - 62.6 °F 100% 29.92 in 0.4 mi WSW 5.8 mph - N/A Fog Shallow Fog
7:30 AM 62.6 °F - 62.6 °F 100% 29.92 in 0.3 mi West 6.9 mph - N/A Fog Shallow Fog
8:00 AM 64.4 °F - 62.6 °F 94% 29.92 in 0.4 mi West 8.1 mph - N/A Fog Shallow Fog
9:30 AM 71.6 °F - 62.6 °F 73% 29.95 in 1.2 mi NW 10.4 mph - N/A   Smoke
10:00 AM 73.4 °F - 62.6 °F 69% 29.95 in 1.6 mi WNW 10.4 mph - N/A   Smoke
11:00 AM 77.0 °F - 55.4 °F 47% 29.95 in 2.2 mi NW 12.7 mph - N/A   Haze
11:30 AM 78.8 °F - 57.2 °F 47% 29.95 in 2.5 mi NNW 12.7 mph - N/A   Haze
12:00 PM 80.6 °F 80.3 °F 53.6 °F 39% 29.92 in 2.5 mi NW 13.8 mph - N/A   Haze
12:30 PM 80.6 °F - 51.8 °F 37% 29.92 in 2.5 mi WNW 13.8 mph - N/A   Haze
1:00 PM 82.4 °F - 50.0 °F 32% 29.92 in 2.8 mi NW 13.8 mph - N/A   Haze
1:30 PM 82.4 °F - 48.2 °F 30% 29.89 in 2.8 mi NW 13.8 mph - N/A   Haze
2:30 PM 80.6 °F - 44.6 °F 28% 29.86 in 3.1 mi WNW 13.8 mph - N/A   Haze
3:00 PM 82.4 °F - 46.4 °F 28% 29.86 in 3.1 mi WNW 12.7 mph - N/A   Haze
3:30 PM 82.4 °F - 44.6 °F 26% 29.86 in 3.1 mi NW 13.8 mph - N/A   Haze
4:00 PM 80.6 °F - 48.2 °F 32% 29.83 in 3.1 mi NW 13.8 mph - N/A   Haze
4:30 PM 80.6 °F - 48.2 °F 32% 29.83 in 3.1 mi NW 13.8 mph - N/A   Haze
5:00 PM 80.6 °F - 50.0 °F 34% 29.83 in 3.1 mi NW 13.8 mph - N/A   Haze
5:30 PM 78.8 °F - 50.0 °F 36% 29.83 in 3.1 mi NW 11.5 mph - N/A   Haze
6:00 PM 78.8 °F - 51.8 °F 39% 29.83 in 3.1 mi NW 12.7 mph - N/A   Haze
6:30 PM 77.0 °F - 51.8 °F 41% 29.83 in 3.1 mi NW 11.5 mph - N/A   Haze
7:00 PM 77.0 °F - 51.8 °F 41% 29.83 in 3.1 mi NW 10.4 mph - N/A   Haze
7:30 PM 75.2 °F - 55.4 °F 50% 29.83 in 2.8 mi NW 13.8 mph - N/A   Haze
8:00 PM 75.2 °F - 55.4 °F 50% 29.83 in 2.8 mi NW 13.8 mph - N/A   Haze
8:30 PM 73.4 °F - 57.2 °F 57% 29.83 in 2.2 mi WNW 11.5 mph - N/A   Haze
9:00 PM 73.4 °F - 57.2 °F 57% 29.83 in 2.2 mi WNW 11.5 mph - N/A   Haze
9:30 PM 73.4 °F - 59.0 °F 61% 29.83 in 2.2 mi NW 11.5 mph - N/A   Haze
10:00 PM 73.4 °F - 59.0 °F 61% 29.83 in 2.2 mi WNW 11.5 mph - N/A   Haze
10:30 PM 69.8 °F - 57.2 °F 64% 29.83 in 2.5 mi WNW 9.2 mph - N/A   Haze
11:00 PM 69.8 °F - 59.0 °F 68% 29.83 in 2.8 mi WNW 10.4 mph - N/A   Haze